Regional Weather Roundup
Issued by NWS

Home | Current Version | Previous Version | Text Only | Print | Product List | Glossary Off
Versions: 1 2 3 4 5 6 7 8 9 10 11 12 13 14 15 16 17 18 19 20 21 22 23 24 25 26 27 28 29 30 31 32 33 34 35 36 37 38 39 40 41 42 43 44 45 46 47 48 49

000
ASUS45 KCYS 230910
RWRWY

WYOMING REGIONAL WEATHER ROUNDUP
NATIONAL WEATHER SERVICE CHEYENNE WY
300 AM MDT TUE SEP 23 2014

NOTE:  "FAIR" INDICATES FEW OR NO CLOUDS BELOW 12,000 FEET
WITH NO SIGNIFICANT WEATHER AND/OR OBSTRUCTIONS TO VISIBILITY.

WYZ001-231000-
YELLOWSTONE NATIONAL PARK

CITY           SKY/WX    TMP DP  RH WIND       PRES   REMARKS
LK YELLOWSTONE   N/A     47  45  93 CALM      30.30S
W YELLOWSTONE  NOT AVBL

$$
WYZ002>013-054>058-071-098>099-231000-
NORTHERN WYOMING

CITY           SKY/WX    TMP DP  RH WIND       PRES   REMARKS
JACKSON        CLOUDY    52  50  93 CALM      30.23F
CODY           CLEAR     63  45  51 W8        30.06S
GREYBULL       CLEAR     56  46  69 SE6       29.99S
WORLAND        PTCLDY    51  46  83 SW10      30.01F
SHERIDAN       CLEAR     54  45  71 S7        29.96F
BUFFALO        CLEAR     56  41  57 NW7       30.02S
GILLETTE       CLOUDY    58  50  75 SW5       29.97S
HULETT         RAIN      59  54  82 MISG      29.99
NEWCASTLE      FAIR      54  46  76 N8        29.98

$$
WYZ014>020-022>026-101>103-231000-
CENTRAL WYOMING

CITY           SKY/WX    TMP DP  RH WIND       PRES   REMARKS
BIG PINEY      PTCLDY    43  41  93 E3        30.27S
PINEDALE       PTSUNNY   43  43 100 N5        30.27S
DUBOIS         CLOUDY    52  41  66 N14       30.20F
LANDER         CLEAR     52  39  61 W5        30.10S
RIVERTON       CLEAR     57  41  55 W17       30.09F
CASPER         PTCLDY    57  41  55 SW10      30.07F
DOUGLAS        PTCLDY    52  43  71 N7        30.05F

$$
WYZ021-027>030-104>119-231000-
SOUTHERN WYOMING

CITY           SKY/WX    TMP DP  RH WIND       PRES   REMARKS
EVANSTON       CLOUDY    53  44  71 SW7       30.27F
KEMMERER       MOSUNNY   45  41  87 NW10      30.27F
FORT BRIDGER   CLOUDY    55  47  76 W6        30.29F
ROCK SPRINGS   MOCLDY    47  42  83 SW8       30.24F
DIXON          LGT RAIN  53  50  90 S3        30.27S
RAWLINS        CLEAR     50  44  80 SW9       30.22S
SARATOGA       FAIR      48  45  87 S3        30.24F
LARAMIE        PTCLDY    47  42  83 W6        30.21S
CHEYENNE       MOCLDY    56  44  64 W12       30.15S
TORRINGTON     CLEAR     52  47  83 CALM      30.00F
PINE BLUFFS    FAIR      54  46  76 W8        30.09F

$$


USA.gov is the U.S. government's official web portal to all federal, state and local government web resources and services.